Starlink 35481

operational
NORAD ID: 66248 Int'l Des: 2025-245 Owner: SPXS Country: US Constellation: starlink
LEOCIRCULAR

About Starlink 35481

Description loading...

Live Position

Loading 3D Globe...

Upcoming Passes

Altitude History

Altitude vs Time

uPlot chart will show altitude changes over time

Two-Line Element Set

1 66248C 25245P 25303.07895833 .00474640 00000+0 74666-3 0 3035
2 66248 53.1599 182.3227 0004899 304.2819 152.2257 16.02691130 16
Epoch: Oct 30, 2025 • Age: 20 hours

Current Status

Altitude 272.1 km
Velocity 7.75 km/s
Sub-Earth Point 48.25°N, 100.32°W
Launch Date Oct 29, 2025
Age 1 days
Type internet

Technical Details

Classification Payload
Mass 575.00 kg
Dry Mass 530.00 kg
Total Mass 575.00 kg
Length 0.30 m
Diameter 4.10 m
Span 29.00 m
Shape Box + pan
Manufacturer SPXS
Bus Type Starlink V2MO
Phase Status In Orbit
Owner/State SPXS/US

Large Constellations

Loading constellations...